Location: Amsterdam
(30.7274°N, 84.4357°W)
Time: 20:31:05
(UTC+00:00)

Altair - Pass Details

Date: 08 August 2024
Orbit: 1501 x 1682 km, 47.2° (Epoch: 07 September)

Event Time Altitude Azimuth Distance (km) Brightness Sun altitude
Rises 23:33:14 0° 309° (NW) 4,741 11.3 10.1°
Reaches altitude 10° 23:36:33 10° 315° (NW) 3,732 10.7 9.4°
Maximum altitude 23:45:31 47° 28° (NNE) 1,917 8.1 7.5°
Drops below altitude 10° 23:54:16 10° 100° (E) 3,647 8.9 5.7°
Sets 23:57:26 0° 106° (ESE) 4,626 9.3 5.0°
